This is the latest recevied weather packets stored in our database for station/object KD4EED. If no packets are shown the sender has not sent any weather packets the latest 10 day(s).
| Time | Temp. | Humidity | Pressure | Rain* | Wind** | Luminosity | Snow |
|---|---|---|---|---|---|---|---|
| 1788052082 | 30° C | 55% | 1007.4 hPa | - | - | 71 W/m² | - |
| 1788051781 | 30° C | 54% | 1007.4 hPa | - | - | 77 W/m² | - |
| 1788051477 | 30.56° C | 53% | 1007.5 hPa | - | - | 81 W/m² | - |
| 1788051175 | 31.11° C | 53% | 1007.3 hPa | - | - | 88 W/m² | - |
| 1788050874 | 31.11° C | 52% | 1007.3 hPa | - | - | 95 W/m² | - |
| 1788050570 | 31.11° C | 52% | 1007.3 hPa | - | - | 106 W/m² | - |
| 1788050264 | 31.11° C | 53% | 1007.6 hPa | - | - | 114 W/m² | - |
| 1788049959 | 30.56° C | 55% | 1007.5 hPa | - | - | 112 W/m² | - |
| 1788049657 | 30.56° C | 56% | 1007.7 hPa | - | - | 146 W/m² | - |
| 1788049353 | 31.11° C | 54% | 1007.6 hPa | - | - | 168 W/m² | - |
| 1788049053 | 31.11° C | 54% | 1007.5 hPa | - | - | 188 W/m² | - |
| 1788048748 | 31.67° C | 52% | 1007.5 hPa | - | - | 203 W/m² | - |
| 1788048447 | 32.22° C | 51% | 1007.4 hPa | - | - | 214 W/m² | - |
| 1788048146 | 31.67° C | 52% | 1007.5 hPa | - | - | 227 W/m² | - |
| 1788047843 | 32.22° C | 51% | 1007.4 hPa | - | - | 240 W/m² | - |
| 1788047543 | 32.22° C | 51% | 1007.6 hPa | - | - | 257 W/m² | - |
| 1788047238 | 32.22° C | 50% | 1007.5 hPa | - | - | 269 W/m² | - |
| 1788046938 | 32.78° C | 50% | 1007.6 hPa | - | - | 283 W/m² | - |
| 1788046637 | 33.33° C | 49% | 1007.6 hPa | - | - | 299 W/m² | - |
| 1788046332 | 33.33° C | 48% | 1007.5 hPa | - | - | 310 W/m² | - |
| 1788046030 | 33.33° C | 47% | 1007.5 hPa | - | - | 330 W/m² | - |
| 1788045725 | 33.33° C | 46% | 1007.5 hPa | - | - | 342 W/m² | - |
| 1788045420 | 33.33° C | 48% | 1007.4 hPa | - | - | 358 W/m² | - |
| 1788045115 | 33.33° C | 47% | 1007.6 hPa | - | - | 370 W/m² | - |
| 1788044815 | 32.78° C | 48% | 1007.4 hPa | - | - | 382 W/m² | - |
* Rain since midnight (hover to see other rain measurements)
** Current wind speed in m/s (hover to see current wind gust speed)